This demonstration page uses our WeatherBlox Daily Observations layout. Learn more.

Left ArrowRight Arrow

36.17497, -115.13722

Hourly Observations for January 5, 2017

Temp ( °F °C ) Dew Point ( °F °C ) Humidity (%) Winds ( mph kmh ) Pressure ( in mb ) Visibility ( mi km ) Precip ( " mm )
12:53 am 00:53 Mostly Clear 45 7.2 41 5 86 86 VRB 3 6 29.87 1011 10 16 N/A
1:53 am 01:53 Partly Cloudy 46 7.8 42 5.6 86 86 NNE 3 6 29.85 1011 10 16 N/A
2:53 am 02:53 Partly Cloudy 45 7.2 41 5 86 86 NW 7 11 29.83 1010 10 16 N/A
3:53 am 03:53 Mostly Clear 47 8.3 42 5.6 83 83 VRB 5 7 29.83 1010 10 16 N/A
4:53 am 04:53 Clear 46 7.8 41 5 83 83 N 9 15 29.82 1010 10 16 N/A
5:53 am 05:53 Clear 45 7.2 40 4.4 83 83 N 9 15 29.83 1010 10 16 N/A
6:53 am 06:53 Sunny 43 6.1 40 4.4 89 89 WNW 5 7 29.83 1010 10 16 N/A
7:53 am 07:53 Sunny 46 7.8 41 5 83 83 N 6 9 29.83 1010 10 16 N/A
8:53 am 08:53 Sunny 52 11.1 43 6.1 72 72 NNE 6 9 29.83 1010 10 16 N/A
9:53 am 09:53 Sunny 54 12.2 44 6.7 69 69 N N/A 29.83 1010 10 16 N/A
10:53 am 10:53 Sunny 62 16.7 42 5.6 48 48 WSW 18 30 29.75 1008 10 16 N/A
11:53 am 11:53 Sunny 62 16.7 41 5 46 46 WSW 30 48 29.70 1006 10 16 N/A
12:53 pm 12:53 Sunny 65 18.3 40 4.4 40 40 WSW 20 31 29.70 1006 10 16 N/A
1:53 pm 13:53 Sunny 66 18.9 37 2.8 34 34 W 26 43 29.67 1005 10 16 N/A
2:53 pm 14:53 Sunny 65 18.3 36 2.2 34 34 SW 26 43 29.63 1004 10 16 N/A
3:53 pm 15:53 Sunny 63 17.2 35 1.7 35 35 WSW 24 39 29.65 1004 10 16 N/A
4:53 pm 16:53 Clear 61 16.1 35 1.7 38 38 W 16 26 29.66 1004 10 16 N/A
5:53 pm 17:53 Clear 61 16.1 35 1.7 38 38 W 23 37 29.68 1005 10 16 N/A
6:53 pm 18:53 Clear 59 15 35 1.7 41 41 WSW 23 37 29.71 1006 10 16 N/A
7:53 pm 19:53 Mostly Cloudy 58 14.4 32 undefined 38 38 WNW 14 22 29.79 1009 10 16 N/A
8:53 pm 20:53 Cloudy 51 10.6 32 undefined 48 48 E 7 11 29.87 1012 10 16 N/A
9:31 pm 21:31 Cloudy 52 11.1 28 -2.2 40 40 NE 15 24 29.88 1012 10 16 N/A
9:53 pm 21:53 Cloudy 51 10.6 26 -3.3 38 38 N 8 13 29.92 1013 10 16 N/A
10:53 pm 22:53 Cloudy 50 10 22 -5.6 33 33 N 13 20 29.94 1014 10 16 N/A
11:53 pm 23:53 Partly Cloudy 47 8.3 17 -8.3 30 30 N 14 22 29.99 1016 10 16 N/A

Powered by AerisWeather